Regional Weather Roundup
Issued by NWS

Home | Current Version | Previous Version | Text Only | Print | Product List | Glossary On
Versions: 1 2 3 4 5 6 7 8 9 10 11 12 13 14 15 16 17 18 19 20 21 22 23 24 25 26 27 28 29 30 31 32 33 34 35 36 37 38 39 40 41 42 43 44 45 46 47 48 49 50
000
ASUS43 KMKX 060721
RWRWI

WISCONSIN REGIONAL WEATHER ROUNDUP
NATIONAL WEATHER SERVICE MILWAUKEE/SULLIVAN WI
200 AM CDT FRI MAY 06 2016

NOTE: "FAIR" INDICATES FEW OR NO CLOUDS BELOW 12,000 FEET WITH NO
SIGNIFICANT WEATHER AND/OR OBSTRUCTIONS TO VISIBILITY.

WIZ001-002-006>008-014>016-023>028-060800-
NORTHWEST WISCONSIN

CITY           SKY/WX    TMP DP  RH WIND       PRES   REMARKS
SUPERIOR ARPT  CLEAR     43  38  83 CALM      29.78R
ASHLAND        CLEAR     61  40  45 SW8       29.78F
HAYWARD        PTCLDY    50  42  74 CALM      29.83F
SIREN          CLEAR     66  41  40 W14       29.83S
CUMBERLAND     CLEAR     52  37  58 CALM      29.85S
RICE LAKE      CLEAR     52  41  65 CALM      29.86S
CHETEK         CLEAR     53  44  73 E3        29.85F
LADYSMITH      PTCLDY    53  39  59 SE3       29.88S
EAU CLAIRE     CLEAR     52  41  66 S3        29.86S
MENOMONIE      CLEAR     53  41  64 SE3       29.86S
NEW RICHMOND   CLEAR     57  40  53 S3        29.86S
OSCEOLA        CLEAR     53  43  69 CALM      29.87F
$$

WIZ003>005-009-010-017-018-060800-
NORTH CENTRAL WISCONSIN

CITY           SKY/WX    TMP DP  RH WIND       PRES   REMARKS
MANITOWISH WTR CLEAR     50  38  63 S6        29.86F
ARBOR VITAE    CLEAR     52  38  60 S6        29.87F
WOODRUFF       CLEAR     52  38  60 S6        29.87F
RHINELANDER    CLEAR     53  37  54 SW5       29.89F
EAGLE RIVER    CLEAR     48  35  61 CALM      29.88F
LAND O LAKES   CLEAR     44  38  79 CALM      29.88F
PHILLIPS       CLEAR     53  38  55 S5        29.86F
TOMAHAWK       CLEAR     43  39  86 CALM      29.89F
MEDFORD        CLEAR     50  40  68 S7        29.88F
MERRILL        CLEAR     42  40  92 CALM      29.91S
$$

WIZ029-030-035-036-043>047-060800-
CENTRAL WISCONSIN

CITY           SKY/WX    TMP DP  RH WIND       PRES   REMARKS
WAUSAU         CLEAR     53  41  63 S5        29.89F
MOSINEE        CLEAR     50  39  66 S5        29.92S
MARSHFIELD     CLEAR     51  39  63 S5        29.90F
STEVENS POINT  CLEAR     43  37  78 S3        29.91F
WAUPACA        CLEAR     47  38  72 CALM      29.92F
WAUTOMA        CLEAR     44  37  76 CALM      29.93F
WISC RAPIDS    CLEAR     47  38  71 SW6       29.92F
CAMP DOUGLAS   CLEAR     49  48  93 SE2       29.92F
$$

WIZ011>013-019>022-031-037>040-048>050-060800-
NORTHEAST WISCONSIN

CITY           SKY/WX    TMP DP  RH WIND       PRES   REMARKS
ANTIGO         CLEAR     45  38  76 CALM      29.91S
SHAWANO        MOCLDY    54  37  52 CALM      29.90F
OCONTO         CLOUDY    46  44  90 SW3       29.89S
STURGEON BAY   MOCLDY    48  39  71 S6        29.93R
GREEN BAY      CLOUDY    50  42  74 SW3       29.91F
MANITOWOC      CLOUDY    47  40  76 E6        29.93S
APPLETON       CLEAR     46  34  61 SW5       29.90F
CLINTONVILLE   CLEAR     50  36  57 CALM      29.90F
OSHKOSH        PTCLDY    50  36  58 S5        29.92F
$$

WIZ032>034-041-042-053>061-060800-
SOUTHWEST WISCONSIN

CITY           SKY/WX    TMP DP  RH WIND       PRES   REMARKS
LA CROSSE      PTCLDY    57  45  64 E8        29.91F
SPARTA         CLOUDY    49  43  81 CALM      29.92F
VIROQUA        PTCLDY    55  38  54 SW8       29.93F
BOSCOBEL       MOCLDY    48  43  82 NE3       29.95F
PRAIRIE DU CHI CLEAR     49  41  72 CALM      29.95F
PLATTEVILLE    MOCLDY    53  38  58 S6        29.97S
$$

WIZ056-057-062-063-064-067-068-060800-
SOUTH CENTRAL WISCONSIN

CITY           SKY/WX    TMP DP  RH WIND       PRES   REMARKS
REEDSBURG      CLEAR     48  41  76 CALM      29.94F
BARABOO/DELLS  CLEAR     48  37  64 SW3       29.94F
LONE ROCK      PTCLDY    48  41  76 E5        29.96F
MINERAL POINT  PTCLDY    54  34  47 S6        29.97S
MADISON        CLOUDY    47  38  71 CALM      29.95F
MIDDLETON      CLOUDY    46  41  82 CALM      29.95F
WATERTOWN      CLOUDY    43  43 100 CALM      29.94F
MONROE         CLEAR     52  36  54 SW9       29.97S
JANESVILLE     CLOUDY    45  41  87 CALM      29.96F
$$

WIZ051-052-058>065-066-070>072-060800-
SOUTHEAST WISCONSIN

CITY           SKY/WX    TMP DP  RH WIND       PRES   REMARKS
MILWAUKEE      PTCLDY    48  36  63 SW7       29.95F
WAUKESHA       PTCLDY    45  37  76 SW5       29.96F
MILWAUKEE/TIMM PTCLDY    45  36  70 CALM      29.95F
RACINE         CLEAR     45  35  68 SW5       29.97F
BURLINGTON     CLEAR     39  38  98 CALM      29.96F
KENOSHA        CLEAR     43  36  76 S6        29.96F
FOND DU LAC    MOCLDY    48  40  73 SW3       29.93F
SHEBOYGAN      MOCLDY    46  40  79 CALM      29.94S
WEST BEND      PTCLDY    45  37  76 CALM      29.95S
JUNEAU         PTCLDY    46  38  75 CALM      29.95S
$$

LSZ147-162-060800-
LAKE SUPERIOR

STATION/POSITION TIME  TEMP    WIND        PRES    WAVE
                       AIR SEA DIR/SP/G            HT/PER
                 (UTC) (F)     (DEG/KT/KT) (MB)    (FT/S)
W MID LAKE BUOY  0650   45 37  190/ 10/ 12 1008.0F   0
DEVILS ISLAND    0700   44     290/  5/  5 1008.1F
PORT WING        0500   44      50/  6/ 21 1008.8
SAXON HARBOR     0600   64     180/ 10/ 17 1008.1
$$

LMZ867-665-643>646-060800-
LAKE MICHIGAN

STATION/POSITION TIME  TEMP    WIND        PRES    WAVE
                       AIR SEA DIR/SP/G            HT/PER
                 (UTC) (F)     (DEG/KT/KT) (MB)    (FT/S)
CHAMBERS ISLAND  0600   51     180/  7/ 11 1012.5F
N MID LAKE BUOY  0650   41 39  190/ 10/ 12 1012.9F   0
NORTHPORT PIER   0600   50     170/  5/ 11 1012.5S
ALGOMA LAKESHORE 0615          220/  9/ 11   N/A
KEWAUNEE LAKESHO 0700   49     160/  4/  5 1012.2F
SHEBOYGAN LAKESH 0700   48     210/  7/  7 1014.2F
PORT WASHINGTON  0600   46     270/  2/  4 1015.2
S MID LAKE BUOY  0650   41 40  230/  6/  6 1015.0F   1/ 5
KENOSHA   LAKESH 0700   46     190/  4/  6 1014.6F
$$

TC  - TEMPERATURE IN CELSIUS
VSB - VISIBILITY IN STATUTE MILES
WCI - WIND CHILL INDEX
HX  - HEAT INDEX





USA.gov is the U.S. government's official web portal to all federal, state and local government web resources and services.